FW0814 Weather Reports


Display with metric or nautical units.
time (UTC)temp
F
wind
direction
speed
MPH
gust
MPH
rain 1hr
in
rain 24hr
in
rain mn
in
humidity
%
barometer
mb
20210624092822 59 94 1.0 6.0 0.00 0.00 0.00 87 1024.2
20210624092321 59 99 1.0 6.0 0.00 0.00 0.00 87 1024.2
20210624091821 59 90 1.0 6.0 0.00 0.00 0.00 87 1024.1
20210624091321 59 92 0.0 4.0 0.00 0.00 0.00 87 1024.2
20210624090821 59 65 0.0 4.0 0.00 0.00 0.00 87 1024.2
20210624090322 59 84 0.0 1.0 0.00 0.00 0.00 87 1024.1
20210624085821 60 99 0.0 6.0 0.00 0.00 0.00 87 1024.1
20210624085321 60 92 0.0 6.0 0.00 0.00 0.00 87 1024.1
20210624084821 60 103 0.0 4.0 0.00 0.00 0.00 87 1024.1
20210624084321 60 92 0.0 3.0 0.00 0.00 0.00 87 1024.1
20210624083821 60 88 0.0 4.0 0.00 0.00 0.00 87 1024.0
20210624083322 60 109 0.0 4.0 0.00 0.00 0.00 87 1024.0
20210624083113 60 99 0.0 2.0 0.00 0.00 0.00 87 1024.0
20210624083054 60 103 1.0 4.0 0.00 0.00 0.00 87 1024.0
20210624083032 60 94 1.0 4.0 0.00 0.00 0.00 87 1023.9
20210624080820 60 93 0.0 4.0 0.00 0.00 0.00 87 1023.8
20210624080320 60 90 1.0 7.0 0.00 0.00 0.00 87 1023.8
20210624075820 60 87 1.0 7.0 0.00 0.00 0.00 87 1023.8
20210624075320 60 90 1.0 3.0 0.00 0.00 0.00 87 1023.7
20210624074820 60 94 0.0 3.0 0.00 0.00 0.00 86 1023.6
20210624074320 60 92 0.0 3.0 0.00 0.00 0.00 86 1023.7
20210624073820 60 103 0.0 2.0 0.00 0.00 0.00 86 1023.6
20210624073320 60 93 1.0 6.0 0.00 0.00 0.00 86 1023.5
20210624072819 60 96 1.0 6.0 0.00 0.00 0.00 86 1023.5
20210624072320 61 51 1.0 4.0 0.00 0.00 0.00 85 1023.6
20210624071818 61 87 0.0 3.0 0.00 0.00 0.00 84 1023.6
20210624071318 61 98 0.0 2.0 0.00 0.00 0.00 84 1023.7
20210624071048 62 80 0.0 1.0 0.00 0.00 0.00 83 1023.7
20210624071034 62 90 0.0 1.0 0.00 0.00 0.00 82 1023.7
20210624071017 62 90 0.0 1.0 0.00 0.00 0.00 83 1023.6
20210624064818 62 103 0.0 0.0 0.00 0.00 0.00 82 1023.6
20210624064317 62 108 0.0 1.0 0.00 0.00 0.00 82 1023.7
20210624063817 62 100 0.0 1.0 0.00 0.00 0.00 82 1023.7
20210624063550 62 91 0.0 3.0 0.00 0.00 0.00 82 1023.8
20210624063533 62 98 0.0 3.0 0.00 0.00 0.00 82 1023.8
20210624063517 62 80 0.0 1.0 0.00 0.00 0.00 81 1023.8
20210624061318 63 71 0.0 2.0 0.00 0.00 0.00 80 1023.9
20210624060818 63 86 0.0 1.0 0.00 0.00 0.00 80 1023.8
20210624060318 63 71 0.0 1.0 0.00 0.00 0.00 80 1023.9
20210624055817 63 94 0.0 1.0 0.00 0.00 0.00 80 1023.9
20210624055626 63 92 0.0 0.0 0.00 0.00 0.00 79 1023.9
20210624055609 64 100 0.0 0.0 0.00 0.00 0.00 79 1024.0
20210624055553 64 115 0.0 0.0 0.00 0.00 0.00 79 1024.0
20210624055539 64 91 0.0 1.0 0.00 0.00 0.00 78 1024.0
20210624055520 64 82 0.0 1.0 0.00 0.00 0.00 78 1024.1
20210624055502 64 42 0.0 2.0 0.00 0.00 0.00 78 1024.0
20210624053746 64 64 0.0 2.0 0.00 0.00 0.00 78 1023.9
20210624052031 64 77 0.0 1.0 0.00 0.00 0.00 78 1023.8
20210624052016 64 75 0.0 1.0 0.00 0.00 0.00 78 1023.9
20210624051957 64 20 0.0 0.0 0.00 0.00 0.00 78 1023.9
20210624050242 64 71 0.0 3.0 0.00 0.00 0.00 77 1023.9
20210624050222 64 60 0.0 3.0 0.00 0.00 0.00 77 1023.9
20210624044510 64 83 0.0 0.0 0.00 0.00 0.00 77 1023.9
20210624042309 64 5 0.0 2.0 0.00 0.00 0.00 76 1023.9
20210624042043 65 355 0.0 2.0 0.00 0.00 0.00 76 1023.8
20210624042027 65 5 0.0 1.0 0.00 0.00 0.00 76 1023.9
20210624042009 65 54 0.0 1.0 0.00 0.00 0.00 75 1023.8
20210624035807 65 38 0.0 1.0 0.00 0.00 0.00 74 1023.8
20210624035306 65 83 0.0 1.0 0.00 0.00 0.00 74 1023.8
20210624034805 66 119 0.0 0.0 0.00 0.00 0.00 74 1023.8
20210624034305 66 82 0.0 1.0 0.00 0.00 0.00 73 1023.7
20210624033805 66 76 0.0 1.0 0.00 0.00 0.00 73 1023.5
20210624033305 66 110 0.0 2.0 0.00 0.00 0.00 73 1023.5
20210624032806 66 61 0.0 2.0 0.00 0.00 0.00 72 1023.5
20210624032306 66 97 0.0 0.0 0.00 0.00 0.00 72 1023.5
20210624031806 66 61 0.0 1.0 0.00 0.00 0.00 72 1023.6
20210624031307 67 138 0.0 2.0 0.00 0.00 0.00 72 1023.5
20210624030805 67 135 0.0 2.0 0.00 0.00 0.00 72 1023.6
20210624030305 67 53 0.0 2.0 0.00 0.00 0.00 72 1023.5
20210624025806 67 126 0.0 2.0 0.00 0.00 0.00 72 1023.5
20210624025306 67 123 0.0 3.0 0.00 0.00 0.00 72 1023.6
20210624024806 67 160 0.0 3.0 0.00 0.00 0.00 72 1023.5
20210624024306 67 105 0.0 7.0 0.00 0.00 0.00 72 1023.6
20210624023805 67 106 0.0 7.0 0.00 0.00 0.00 71 1023.6
20210624023307 67 74 0.0 3.0 0.00 0.00 0.00 71 1023.5
20210624022902 67 167 0.0 3.0 0.00 0.00 0.00 71 1023.5
20210624022847 67 128 0.0 2.0 0.00 0.00 0.00 71 1023.2
20210624022826 67 181 0.0 2.0 0.00 0.00 0.00 71 1023.1
20210624022808 67 149 0.0 4.0 0.00 0.00 0.00 71 1023.0
20210624022745 67 165 0.0 4.0 0.00 0.00 0.00 70 1023.1
20210624021029 67 181 0.0 7.0 0.00 0.00 0.00 70 1022.9
20210624021014 67 159 0.0 7.0 0.00 0.00 0.00 70 1022.8
20210624020951 67 150 0.0 4.0 0.00 0.00 0.00 70 1022.8
20210624020935 67 173 0.0 7.0 0.00 0.00 0.00 70 1022.7
20210624015221 68 157 1.0 5.0 0.00 0.00 0.00 70 1022.5
20210624013508 68 138 0.0 3.0 0.00 0.00 0.00 70 1022.5
20210624011305 68 144 0.0 3.0 0.00 0.00 0.00 70 1022.5
20210624010805 68 209 0.0 7.0 0.00 0.00 0.00 70 1022.3
20210624010306 68 151 0.0 7.0 0.00 0.00 0.00 70 1022.3
20210624005807 68 179 0.0 3.0 0.00 0.00 0.00 70 1022.3
20210624005310 69 138 0.0 5.0 0.00 0.00 0.00 70 1022.2
20210624004805 69 144 0.0 5.0 0.00 0.00 0.00 69 1022.3
20210624004533 69 183 0.0 1.0 0.00 0.00 0.00 69 1022.3
20210624004517 69 220 0.0 1.0 0.00 0.00 0.00 69 1022.2
20210624004502 69 169 0.0 9.0 0.00 0.00 0.00 69 1022.1
20210624002305 70 150 0.0 2.0 0.00 0.00 0.00 68 1022.1
20210624001801 70 177 0.0 2.0 0.00 0.00 0.00 68 1021.9
20210624001314 70 146 0.0 2.0 0.00 0.00 0.00 67 1021.9
20210624001300 70 129 0.0 2.0 0.00 0.00 0.00 67 1021.8
20210624001241 70 181 1.0 8.0 0.00 0.00 0.00 67 1021.8
20210624001226 71 124 1.0 8.0 0.00 0.00 0.00 66 1021.6
20210623235511 71 132 1.0 3.0 0.00 0.00 0.00 66 1021.5
20210623235455 71 154 0.0 3.0 0.00 0.00 0.00 65 1021.4
20210623233255 72 120 1.0 3.0 0.00 0.00 0.00 64 1021.3
20210623232756 72 128 1.0 3.0 0.00 0.00 0.00 64 1021.4
20210623232257 72 131 1.0 3.0 0.00 0.00 0.00 64 1021.3
20210623232020 73 124 0.0 2.0 0.00 0.00 0.00 63 1021.4
20210623232004 73 186 0.0 2.0 0.00 0.00 0.00 63 1021.4
20210623231948 73 206 0.0 4.0 0.00 0.00 0.00 63 1021.3
20210623225750 73 122 0.0 2.0 0.00 0.00 0.00 63 1021.2
20210623225249 73 190 0.0 4.0 0.00 0.00 0.00 63 1021.3
20210623224749 72 149 0.0 4.0 0.00 0.00 0.00 63 1021.3
20210623224251 72 205 0.0 3.0 0.00 0.00 0.00 63 1021.4
20210623223749 72 140 0.0 3.0 0.00 0.00 0.00 63 1021.4
20210623223247 73 137 0.0 2.0 0.00 0.00 0.00 63 1021.2
20210623222747 73 162 1.0 3.0 0.00 0.00 0.00 62 1021.2
20210623222247 73 171 0.0 3.0 0.00 0.00 0.00 61 1021.1
20210623221747 74 161 1.0 3.0 0.00 0.00 0.00 61 1021.1
20210623221246 74 180 1.0 3.0 0.00 0.00 0.00 60 1021.2
20210623220745 75 152 0.0 3.0 0.00 0.00 0.00 60 1021.1
20210623220245 75 165 0.0 0.0 0.00 0.00 0.00 58 1021.1
20210623215746 75 183 0.0 2.0 0.00 0.00 0.00 58 1021.1
20210623215243 74 122 0.0 4.0 0.00 0.00 0.00 59 1021.1
20210623214744 74 115 0.0 4.0 0.00 0.00 0.00 58 1021.1
20210623214244 74 126 1.0 4.0 0.00 0.00 0.00 59 1021.1
20210623213743 75 134 1.0 6.0 0.00 0.00 0.00 57 1021.1
20210623213243 75 106 1.0 6.0 0.00 0.00 0.00 56 1021.1
20210623212739 75 187 0.0 4.0 0.00 0.00 0.00 56 1021.2
20210623212239 76 168 0.0 2.0 0.00 0.00 0.00 58 1021.1
20210623211757 76 139 0.0 4.0 0.00 0.00 0.00 58 1021.2
20210623211740 75 208 1.0 10.0 0.00 0.00 0.00 58 1021.2
20210623211725 75 192 0.0 10.0 0.00 0.00 0.00 58 1021.1
20210623211706 75 151 0.0 3.0 0.00 0.00 0.00 59 1021.1
20210623205950 75 189 0.0 1.0 0.00 0.00 0.00 60 1021.1
20210623205933 74 149 0.0 1.0 0.00 0.00 0.00 59 1021.1
20210623203735 74 119 0.0 3.0 0.00 0.00 0.00 58 1021.1
20210623203236 74 132 0.0 6.0 0.00 0.00 0.00 59 1021.2
20210623202735 74 128 1.0 11.0 0.00 0.00 0.00 59 1021.3
20210623202505 73 119 1.0 11.0 0.00 0.00 0.00 59 1021.2
20210623202449 73 71 1.0 4.0 0.00 0.00 0.00 59 1021.1
20210623202432 73 98 1.0 6.0 0.00 0.00 0.00 59 1021.2
20210623200233 74 96 0.0 2.0 0.00 0.00 0.00 54 1021.2
20210623195736 74 116 0.0 1.0 0.00 0.00 0.00 52 1021.2
20210623195503 74 66 1.0 3.0 0.00 0.00 0.00 54 1021.2
20210623195446 74 76 1.0 3.0 0.00 0.00 0.00 53 1021.3
20210623195431 75 30 1.0 11.0 0.00 0.00 0.00 54 1021.3
20210623193233 76 92 0.0 2.0 0.00 0.00 0.00 52 1021.2
20210623192731 76 115 0.0 2.0 0.00 0.00 0.00 49 1021.2
20210623192231 76 123 0.0 2.0 0.00 0.00 0.00 48 1021.2
20210623191730 77 131 0.0 2.0 0.00 0.00 0.00 49 1021.2
20210623191233 77 181 0.0 2.0 0.00 0.00 0.00 49 1021.2
20210623190731 77 186 0.0 1.0 0.00 0.00 0.00 50 1021.2
20210623190229 77 184 0.0 1.0 0.00 0.00 0.00 47 1021.2
20210623185729 77 281 0.0 3.0 0.00 0.00 0.00 46 1021.3
20210623185229 77 22 0.0 3.0 0.00 0.00 0.00 46 1021.2
20210623184730 76 292 0.0 1.0 0.00 0.00 0.00 47 1021.3
20210623184229 76 248 0.0 0.0 0.00 0.00 0.00 49 1021.2
20210623183729 75 289 0.0 0.0 0.00 0.00 0.00 49 1021.3
20210623183229 75 236 0.0 2.0 0.00 0.00 0.00 49 1021.3
20210623182729 75 254 0.0 2.0 0.00 0.00 0.00 49 1021.4
20210623182229 75 9 0.0 0.0 0.00 0.00 0.00 49 1021.3
20210623181745 74 138 0.0 1.0 0.00 0.00 0.00 49 1021.3
20210623181727 74 230 0.0 4.0 0.00 0.00 0.00 51 1021.4
20210623181711 74 282 0.0 4.0 0.00 0.00 0.00 51 1021.3
20210623181654 73 355 0.0 5.0 0.00 0.00 0.00 53 1021.3
20210623181640 73 45 0.0 5.0 0.00 0.00 0.00 53 1021.3
20210623175926 75 265 0.0 1.0 0.00 0.00 0.00 51 1021.4
20210623173729 74 161 0.0 6.0 0.00 0.00 0.00 50 1021.3
20210623173229 74 250 0.0 6.0 0.00 0.00 0.00 53 1021.4
20210623172729 73 282 0.0 4.0 0.00 0.00 0.00 55 1021.5
20210623172229 74 286 0.0 4.0 0.00 0.00 0.00 54 1021.6
20210623171729 74 302 0.0 1.0 0.00 0.00 0.00 55 1021.5
20210623171230 73 300 0.0 1.0 0.00 0.00 0.00 58 1021.5
20210623170728 72 323 0.0 1.0 0.00 0.00 0.00 61 1021.6
20210623170228 71 295 0.0 2.0 0.00 0.00 0.00 59 1021.6
20210623165729 72 90 0.0 2.0 0.00 0.00 0.00 58 1021.6
20210623165502 74 283 0.0 4.0 0.00 0.00 0.00 57 1021.6
20210623165444 74 302 0.0 4.0 0.00 0.00 0.00 58 1021.6
20210623165427 74 283 0.0 1.0 0.00 0.00 0.00 58 1021.8
20210623163228 72 349 0.0 1.0 0.00 0.00 0.00 59 1021.8
20210623162728 72 124 0.0 2.0 0.00 0.00 0.00 60 1021.6
20210623162229 72 71 0.0 2.0 0.00 0.00 0.00 60 1021.6
20210623161753 72 121 0.0 2.0 0.00 0.00 0.00 61 1021.6
20210623161733 71 338 0.0 0.0 0.00 0.00 0.00 63 1021.6
20210623161716 69 153 0.0 0.0 0.00 0.00 0.00 64 1021.6
20210623161701 69 127 0.0 0.0 0.00 0.00 0.00 64 1021.6
20210623161645 69 127 0.0 2.0 0.00 0.00 0.00 65 1021.8
20210623155927 69 92 0.0 4.0 0.00 0.00 0.00 65 1021.6
20210623153729 69 103 0.0 1.0 0.00 0.00 0.00 65 1021.8
20210623153228 68 57 0.0 2.0 0.00 0.00 0.00 65 1021.8
20210623152729 69 65 0.0 2.0 0.00 0.00 0.00 65 1021.8
20210623152229 69 91 0.0 2.0 0.00 0.00 0.00 65 1021.9
20210623151729 69 111 0.0 2.0 0.00 0.00 0.00 65 1022.0
20210623151229 68 70 0.0 0.0 0.00 0.00 0.00 66 1021.9
20210623150729 67 86 0.0 1.0 0.00 0.00 0.00 66 1021.9
20210623150228 67 52 0.0 2.0 0.00 0.00 0.00 67 1022.0
20210623145729 67 44 0.0 2.0 0.00 0.00 0.00 66 1021.9
20210623145229 67 83 0.0 3.0 0.00 0.00 0.00 67 1021.9
20210623144728 67 89 0.0 3.0 0.00 0.00 0.00 67 1021.9
20210623144224 67 94 0.0 0.0 0.00 0.00 0.00 66 1021.8
20210623143724 67 124 0.0 2.0 0.00 0.00 0.00 68 1021.8
20210623143224 66 105 0.0 2.0 0.00 0.00 0.00 68 1021.8
20210623142724 66 80 0.0 2.0 0.00 0.00 0.00 69 1021.8
20210623142224 65 92 0.0 2.0 0.00 0.00 0.00 68 1021.8
20210623141722 65 105 0.0 2.0 0.00 0.00 0.00 69 1021.8
20210623141222 65 130 0.0 2.0 0.00 0.00 0.00 69 1021.8
20210623140953 65 94 0.0 3.0 0.00 0.00 0.00 69 1021.8
20210623140938 64 68 0.0 4.0 0.00 0.01 0.00 69 1021.8
20210623140920 64 103 0.0 6.0 0.00 0.01 0.00 70 1021.9
20210623134717 64 13 0.0 1.0 0.00 0.02 0.00 71 1021.9
20210623134217 63 140 0.0 2.0 0.00 0.03 0.00 71 1022.0
20210623133717 63 61 0.0 2.0 0.00 0.03 0.00 70 1021.9
20210623133217 63 82 0.0 1.0 0.00 0.04 0.00 70 1021.9
20210623132717 62 74 0.0 2.0 0.00 0.05 0.00 72 1021.8
20210623132216 62 89 1.0 3.0 0.00 0.08 0.00 72 1021.8
20210623131715 62 81 1.0 3.0 0.00 0.09 0.00 73 1021.8
20210623131234 62 101 1.0 3.0 0.00 0.12 0.00 74 1021.6
20210623131216 61 49 0.0 3.0 0.00 0.17 0.00 75 1021.6
20210623131158 61 88 0.0 1.0 0.00 0.21 0.00 77 1021.6
20210623131143 60 116 0.0 0.0 0.00 0.23 0.00 79 1021.6
20210623131128 60 101 0.0 0.0 0.00 0.25 0.00 80 1021.5
20210623125411 58 94 0.0 0.0 0.00 0.28 0.00 82 1021.5
20210623123212 57 93 0.0 4.0 0.00 0.31 0.00 83 1021.5
20210623122711 57 105 0.0 2.0 0.00 0.32 0.00 85 1021.4
20210623122210 57 115 0.0 0.0 0.00 0.32 0.00 85 1021.4
20210623121710 57 111 0.0 0.0 0.00 0.32 0.00 86 1021.4
20210623121210 57 90 0.0 0.0 0.00 0.32 0.00 85 1021.3
20210623120709 57 74 0.0 0.0 0.00 0.32 0.00 86 1021.3
20210623120209 56 96 0.0 0.0 0.00 0.33 0.00 86 1021.2
20210623115935 56 82 0.0 0.0 0.00 0.34 0.00 87 1021.2
20210623115918 56 85 0.0 0.0 0.00 0.36 0.00 87 1021.0
20210623115903 55 75 0.0 0.0 0.00 0.42 0.00 89 1021.0
20210623113704 54 109 0.0 0.0 0.00 0.61 0.00 90 1020.8
20210623113205 53 117 0.0 0.0 0.00 0.69 0.00 91 1020.8
20210623112705 53 121 0.0 0.0 0.00 0.77 0.00 92 1020.7
20210623112202 52 121 0.0 0.0 0.00 1.04 0.00 92 1020.7
20210623111932 52 121 0.0 0.0 0.00 1.06 0.00 92 1020.7
20210623111915 52 131 0.0 0.0 0.00 1.07 0.00 92 1020.7
20210623111859 51 125 0.0 0.0 0.00 1.07 0.00 93 1020.8
20210623105659 51 132 0.0 0.0 0.00 1.08 0.00 93 1020.7
20210623105215 51 133 0.0 0.0 0.00 1.08 0.00 93 1020.7
20210623105159 51 134 0.0 0.0 0.00 1.09 0.00 93 1020.5
20210623105138 51 134 0.0 0.0 0.00 1.09 0.00 93 1020.6
20210623105121 51 134 0.0 0.0 0.00 1.10 0.00 93 1020.4
20210623103405 51 134 0.0 0.0 0.00 1.10 0.00 93 1020.3
20210623103350 51 134 0.0 0.0 0.00 1.11 0.00 93 1020.3
20210623101212 51 134 0.0 0.0 0.00 1.13 0.00 93 1020.3
20210623101152 51 134 0.0 0.0 0.00 1.14 0.00 93 1020.0
20210623101136 51 135 0.0 0.0 0.00 1.15 0.00 93 1019.9
20210623101121 51 135 0.0 0.0 0.00 1.15 0.00 93 1019.9
20210623101105 51 135 0.0 0.0 0.00 1.16 0.00 93 1019.8
20210623095343 51 136 0.0 0.0 0.00 1.17 0.00 93 1019.7